Powrót do katalogu

STARLINK-32732

AktywnyŁącznośćVLEO
NORAD 62488·PAYLOAD·🇺🇸 United States

Wystrzelony Jan 6, 2025 z Cape Canaveral Space Force Station

Loading…

Następne Przeloty (najbliższe 24 godziny)

TLE

ŚwieżeSource: CelesTrak SupGP

Epoka: Sep 15, 2026, 02:10 UTC

1 62488C 25003B   26258.09076389  .00037541  00000+0  13596-2 0  2586
2 62488  43.0025 298.9581 0001262 264.2643  48.6328 15.27563177    10

Śledź STARLINK-32732 w czasie rzeczywistym z AllMySat

Download on the App Store